weather.gov     
National Weather Service

Regional Weather Roundup
NWS Homepage
This page is being discontinued on March 12, 2014.
The same data is available at this site. Please update your bookmarks.
Thank you, and we apologize for the inconvenience.
Please send an email to SR-SRH.Webmaster@noaa.gov with any concerns.


Current Version
Previous Version:    01  02  03  04  05  06  07  08  09  10  11  12  13  14  15  16  17  18  19  20  21  22  23  24  25  26  27  28  29  30  
   31  32  33  34  35  36  37  38  39  40  41  42  43  44  45  46  47  48  49  50  51  52  53  54  
[Printable]
500
ASUS41 KBTV 250230
RWRBTV
VERMONT REGIONAL WEATHER ROUNDUP
NATIONAL WEATHER SERVICE BURLINGTON VT
1000 PM EDT THU APR 24 2014

NOTE: "FAIR" INDICATES FEW OR NO CLOUDS BELOW 12,000 FEET WITH NO
SIGNIFICANT WEATHER AND/OR OBSTRUCTIONS TO VISIBILITY.

* THESE REPORTS ARE NOT UNDER NWS QUALITY CONTROL AND/OR DO NOT
  REPORT WEATHER SUCH AS PRECIPITATION AND FOG.

VTZ001>019-250300-
_____VERMONT_____


CITY           SKY/WX    TMP DP  RH WIND       PRES   REMARKS
BURLINGTON     PTCLDY    45  24  43 NW8       29.99S
MONTPELIER     CLOUDY    43  24  47 W9        29.99R
MORRISVILLE    CLEAR     44  26  49 NW5       29.98R
ST. JOHNSBURY*   N/A     46  26  45 MISG      29.93R
LYNDONVILLE*   FAIR      41  25  52 N8        29.95R
MIDDLEBURY*    FAIR      39  27  62 CALM      29.99R
RUTLAND*       CLEAR     39  25  56 SE3       29.98S
SPRINGFIELD    PTCLDY    47  22  37 NW9       29.96R
HIGHGATE*      FAIR      46  26  46 NW3       29.99S
NEWPORT*       MOCLDY    43  27  53 N9        29.96S
BENNINGTON     CLEAR     46  14  27 NW8G18    29.98R
MT. MANSFIELD*   N/A     28 N/A N/A NW20        N/A  WCI  15

_____LAKE CHAMPLAIN_____


CITY           SKY/WX    TMP DP  RH WIND       PRES   REMARKS
BURTON ISLAND*   N/A     45  32  61 W9          N/A
COLCHESTER RF*   N/A     45  28  53 NW14        N/A
DIAMOND ISL*     N/A     48  19  32 W14         N/A

$$

NYZ007-026>031-035-052-083-250300-
_____NORTHERN NEW YORK_____


CITY           SKY/WX    TMP DP  RH WIND       PRES   REMARKS
PLATTSBURGH    CLEAR     46  17  31 NW12      29.99S
SARANAC LAKE   CLEAR     30  17  58 CALM      29.99R
MASSENA        CLEAR     45  16  31 NW5       30.06R
OGDENSBURG*    CLEAR     37  30  75 CALM      30.05S
POTSDAM*       CLEAR     34  25  69 CALM      30.05R
WATERTOWN      CLEAR     37  21  52 S5        30.07S
FT DRUM        CLEAR     37  22  55 SW5       30.05S
ALBANY         CLEAR     47  16  29 NW9       30.01R
GLENS FALLS    CLEAR     49  16  26 NW10      30.00R

$$
NHZ002-005-011-250300-
_____NEW HAMPSHIRE_____


CITY           SKY/WX    TMP DP  RH WIND       PRES   REMARKS
LEBANON        CLOUDY    48  22  35 NW8       29.94R
KEENE          CLEAR     46  21  36 N10G17    29.95S
MT WASHINGTON  FOG       18  18 100 N54G69      N/A  VSB 1/16WCI  -7
PLYMOUTH         N/A     47  27  44 NW9G17    29.91S
WHITEFIELD     CLOUDY    44  27  51 NW6       29.93R

$$

_____REGIONAL QUEBEC LOCATIONS_____


CITY           SKY/WX    TMP DP  RH WIND       PRES   REMARKS
MONTREAL       CLEAR     46  21  36 NW7       30.01R
QUEBEC CITY    MOCLDY    36  32  87 E3        29.97R
SHERBROOKE     CLEAR     37  28  70 VRB2      29.95R

_____REGIONAL ONTARIO LOCATIONS_____


CITY           SKY/WX    TMP DP  RH WIND       PRES   REMARKS
OTTAWA         CLEAR     45  14  29 N10       30.06R

______KEY______
VSB  - VISIBILITY IN MILES
WCI  - WIND CHILL INDEX
HX   - HEAT INDEX
$$
NNNN




U.S. Dept. of Commerce
NOAA National Weather Service
1325 East West Highway
Silver Spring, MD 20910
E-mail: w-nws.webmaster@noaa.gov
Page last modified: May 16, 2007
NATIONAL WEATHER SERVICE: for Safety, for Work, for Fun - FOR LIFE